sat.trackr.live / text

‹ back to catalog

STARLINK-4699

NORAD 53716 · 2022-107S

PAYLOAD ACTIVE UNKNOWN

§ Identity

Operator
Country
US
Launch date
2022-09-05
Launch site
AFETR
Launch vehicle
Mass (kg)
RCS (m²)

Purposes: comms

External: N2YO · Heavens-Above · Gunter

§ Orbital elements

Epoch: 2026-05-24T20:03:49.458240Z

Period
95.44 min
Inclination
53.2157°
Eccentricity
0.0001186
Mean motion
15.08837509 rev/d
Perigee alt
538.9 km
Apogee alt
540.6 km
Semi-major
6,917.9 km
B*
-4.4261e-5
RAAN
271.9611°
Arg perigee
76.9615°
Mean anomaly
283.1509°
Rev number
20,590

§ Raw data

STARLINK-46991 53716U 22107S   26144.83598910 -.00000992  00000+0 -44261-4 0  99962 53716  53.2157 271.9611 0001186  76.9615 283.1509 15.08837509205904

JSON: /api/v1/satellites/53716 · /tle

For live sub-satellite position, see the globe view (requires WebGL).

§ Visibility from observer

Set your observer location to see the next 7 days of passes ≥ 10°. The values pass through the URL so the page stays shareable.

No JS? Fill the form by hand. The geolocation button needs JavaScript.